Total_Precipitation_Accumulation
2.10 1.64 2.70 2.70 2.45 2.17 1.99 2.02 2.08 2.11 2.18 2.06 1.95 1.75 1.60 1.51 1.33 1.22 1.16 1.10 1.07 1.12 1.22 1.25 1.16 1.13 1.03 1.01 1.05 1.05 1.04 1.00 1.01 0.92 0.82 0.82 0.84 0.95 1.15 1.31 1.59 1.98 1.57
1.45 1.36 2.33 2.64 2.45 2.25 2.18 2.16 2.08 2.09 2.16 1.97 1.80 1.69 1.51 1.36 1.26 1.20 1.13 1.11 1.05 0.99 1.04 1.14 1.16 1.18 1.15 1.13 1.21 1.23 1.16 1.10 1.16 1.11 1.12 1.18 1.03 1.02 1.04 1.23 1.67 1.94 1.47
1.24 1.20 1.75 2.46 2.40 2.21 2.20 2.18 2.08 2.01 1.98 1.80 1.66 1.48 1.34 1.19 1.13 1.11 1.13 1.13 1.08 0.97 0.97 1.08 1.18 1.25 1.24 1.26 1.29 1.28 1.26 1.23 1.22 1.23 1.64 2.12 1.62 1.25 1.24 1.26 1.33 1.35 1.34
1.01 1.03 1.34 2.02 2.06 2.01 2.01 1.94 1.89 1.74 1.61 1.65 1.66 1.47 1.31 1.19 1.12 1.14 1.18 1.11 1.05 0.97 1.01 1.09 1.19 1.24 1.23 1.23 1.19 1.16 1.17 1.23 1.31 1.32 1.71 2.13 2.10 1.63 1.46 1.45 1.30 1.28 1.41
0.84 1.01 1.48 1.93 1.91 1.91 1.87 1.70 1.69 1.56 1.42 1.41 1.45 1.40 1.38 1.26 1.13 1.10 1.13 1.13 1.11 1.06 1.05 1.06 1.10 1.16 1.22 1.22 1.16 1.12 1.15 1.37 1.37 1.25 1.48 1.85 2.30 1.91 1.54 1.53 1.42 1.42 1.48
0.96 1.00 1.26 1.65 1.70 1.71 1.64 1.57 1.56 1.45 1.42 1.32 1.25 1.28 1.33 1.28 1.19 1.12 1.17 1.13 1.05 1.07 1.12 1.15 1.18 1.22 1.22 1.20 1.17 1.23 1.30 1.34 1.25 1.38 1.58 1.83 2.11 1.86 1.46 1.35 1.46 1.58 1.66
0.87 0.84 1.00 1.48 1.54 1.54 1.50 1.50 1.53 1.45 1.39 1.26 1.19 1.27 1.40 1.33 1.25 1.18 1.20 1.15 1.07 1.04 1.12 1.15 1.20 1.23 1.16 1.17 1.18 1.18 1.29 1.26 1.30 1.50 1.59 1.77 1.75 1.67 1.41 1.31 1.48 1.58 1.66
0.97 0.88 0.95 1.47 1.59 1.47 1.43 1.38 1.45 1.49 1.41 1.28 1.21 1.21 1.25 1.23 1.16 1.15 1.12 1.13 1.09 1.07 1.13 1.13 1.16 1.20 1.09 1.06 1.05 1.09 1.23 1.14 1.08 1.28 1.46 1.70 1.83 1.70 1.34 1.24 1.31 1.45 1.62
1.29 1.21 1.22 1.37 1.41 1.47 1.43 1.36 1.52 1.64 1.51 1.31 1.19 1.15 1.09 1.08 1.05 1.04 1.04 1.10 1.09 1.08 1.10 1.12 1.16 1.21 1.11 1.02 1.01 1.12 1.27 1.16 1.01 1.22 1.24 1.62 1.91 1.75 1.43 1.25 1.24 1.42 1.56
1.24 1.20 1.24 1.35 1.35 1.36 1.39 1.52 1.69 2.00 1.88 1.48 1.22 1.06 1.00 0.93 0.94 1.03 1.00 1.02 1.10 1.16 1.20 1.21 1.25 1.22 1.20 1.10 1.10 1.22 1.24 0.99 0.96 0.97 1.18 1.46 1.95 1.79 1.46 1.25 1.16 1.21 1.30
0.94 0.98 1.08 1.16 1.20 1.28 1.25 1.41 1.75 2.08 2.12 1.74 1.39 1.23 1.02 0.74 0.74 0.92 1.03 1.13 1.23 1.30 1.37 1.44 1.45 1.36 1.26 1.14 1.17 1.23 1.01 0.79 1.02 1.08 1.25 1.58 1.85 1.81 1.47 1.21 1.09 1.12 1.10
0.75 0.70 0.73 0.77 0.88 0.95 0.98 1.23 1.48 1.56 1.76 1.50 1.43 1.30 1.13 1.06 0.99 0.83 0.90 1.19 1.37 1.38 1.40 1.48 1.55 1.32 1.05 0.84 0.94 1.02 0.80 0.78 0.93 1.02 1.22 1.74 2.06 1.96 1.56 1.29 1.19 1.14 1.05
0.67 0.65 0.59 0.58 0.65 0.76 0.88 1.06 1.26 1.42 1.58 1.57 1.51 1.44 1.44 1.40 1.06 0.92 0.99 1.09 1.21 1.23 1.17 1.26 1.26 1.04 0.85 0.78 0.88 0.82 0.72 0.75 0.85 0.96 1.28 1.84 2.24 2.12 1.66 1.33 1.31 1.25 1.19
0.58 0.68 0.63 0.48 0.49 0.56 0.65 0.83 1.01 1.22 1.42 1.45 1.25 1.16 1.29 1.33 1.14 1.01 1.15 1.22 1.26 1.26 1.32 1.35 1.27 1.10 0.87 0.81 0.85 0.85 0.78 0.80 0.85 0.92 1.18 1.50 1.98 2.13 1.93 1.64 1.58 1.47 1.45
0.57 0.65 0.67 0.58 0.51 0.54 0.59 0.67 0.71 0.99 1.17 1.30 1.34 1.12 1.24 1.28 1.23 1.11 1.05 1.22 1.20 1.24 1.28 1.35 1.37 1.25 1.14 1.03 0.98 0.90 0.93 0.88 0.84 0.82 1.03 1.14 1.40 1.85 2.07 2.06 2.00 1.78 1.66
0.53 0.60 0.62 0.64 0.61 0.60 0.59 0.61 0.59 0.66 0.76 0.86 0.82 0.78 0.98 1.11 1.12 1.12 0.99 1.04 1.13 1.27 1.47 1.54 1.40 1.33 1.27 1.21 1.20 1.12 1.07 0.99 0.94 0.84 0.97 1.03 0.97 1.17 1.57 2.04 2.27 2.09 1.90
0.48 0.54 0.57 0.62 0.67 0.69 0.71 0.78 0.71 0.66 0.70 0.70 0.66 0.65 0.77 0.89 0.97 1.07 1.08 1.04 1.07 1.28 1.52 1.68 1.57 1.46 1.32 1.31 1.30 1.27 1.16 1.12 1.05 0.96 1.04 1.16 0.99 0.92 1.20 1.72 2.17 2.28 2.15
0.43 0.42 0.45 0.48 0.54 0.59 0.66 0.73 0.81 0.80 0.81 0.78 0.81 0.77 0.72 0.85 0.98 1.10 1.15 1.09 1.09 1.29 1.53 1.75 1.80 1.76 1.66 1.58 1.49 1.40 1.33 1.40 1.24 1.13 1.13 1.22 1.32 1.15 1.11 1.33 1.68 1.99 2.21
0.40 0.35 0.33 0.34 0.36 0.40 0.46 0.56 0.70 0.78 0.85 0.91 0.93 0.94 0.94 1.00 1.02 1.14 1.30 1.32 1.32 1.43 1.53 1.58 1.70 1.71 1.74 1.74 1.55 1.51 1.42 1.49 1.51 1.37 1.42 1.44 1.48 1.45 1.30 1.14 1.25 1.38 1.75
0.34 0.34 0.34 0.32 0.32 0.30 0.34 0.47 0.60 0.68 0.75 0.92 0.99 1.05 1.32 1.44 1.24 1.20 1.31 1.33 1.39 1.57 1.63 1.74 1.95 1.88 1.77 1.86 1.69 1.59 1.53 1.50 1.49 1.57 1.63 1.61 1.58 1.49 1.48 1.30 1.34 1.21 1.30
0.21 0.20 0.24 0.26 0.32 0.31 0.28 0.35 0.49 0.61 0.73 0.87 1.03 1.08 1.31 1.43 1.34 1.35 1.37 1.37 1.42 1.51 1.55 1.72 2.09 2.11 1.92 1.82 2.01 1.98 1.87 1.66 1.58 1.60 1.62 1.71 1.73 1.59 1.58 1.60 1.49 1.30 1.11
0.19 0.14 0.16 0.18 0.26 0.33 0.36 0.42 0.56 0.75 0.87 0.97 1.12 1.17 1.27 1.30 1.31 1.24 1.40 1.49 1.47 1.60 1.67 1.82 2.11 2.32 2.09 1.90 2.25 2.68 2.44 2.16 1.82 1.60 1.59 1.51 1.61 1.63 1.54 1.42 1.35 1.28 1.16
0.14 0.11 0.14 0.22 0.34 0.51 0.67 0.89 1.15 1.45 1.58 1.49 1.35 1.41 1.50 1.58 1.55 1.49 1.58 1.70 1.62 1.68 1.77 1.81 1.89 2.33 2.46 2.22 2.18 2.75 2.63 2.42 2.34 1.85 1.48 1.33 1.51 1.64 1.64 1.50 1.40 1.41 1.34
0.18 0.24 0.32 0.43 0.58 0.76 0.96 1.19 1.45 1.71 1.89 1.90 1.91 1.94 1.91 1.87 1.77 1.66 1.67 1.72 1.72 1.79 1.77 1.64 1.79 2.21 2.66 2.68 2.46 2.26 2.14 2.11 2.30 2.19 1.64 1.36 1.43 1.55 1.70 1.58 1.51 1.52 1.50
0.35 0.47 0.57 0.78 0.94 1.08 1.15 1.25 1.47 1.58 1.66 1.77 1.92 1.97 1.96 1.90 1.78 1.64 1.58 1.65 1.72 1.80 1.79 1.84 2.03 2.32 2.60 2.84 2.78 2.52 2.24 2.01 1.68 1.87 1.86 1.65 1.43 1.35 1.40 1.48 1.58 1.57 1.53
0.64 0.86 0.99 1.09 1.18 1.17 1.16 1.18 1.31 1.45 1.55 1.65 1.81 1.86 1.80 1.68 1.63 1.57 1.54 1.53 1.50 1.57 1.67 1.85 2.10 2.23 2.42 2.65 2.71 2.45 2.27 2.13 1.94 1.81 1.67 1.73 1.70 1.42 1.28 1.24 1.34 1.47 1.48